Location: Chrząstowo
(52.0654°N, 17.1290°E)
Time: 15:48:41
(UTC+01:00)

Envisat - Pass Details

Date: 12 December 2019
Orbit: 764 x 766 km, 98.1° (Epoch: 23 January)

Event Time Altitude Azimuth Distance (km) Brightness Sun altitude
Rises 06:02:59 0° 20° (NNE) 3,247 6.3 -15.3°
Reaches altitude 10° 06:05:31 10° 29° (NNE) 2,316 5.6 -15.0°
Maximum altitude 06:10:10 35° 95° (E) 1,232 4.8 -14.3°
Drops below altitude 10° 06:14:47 10° 161° (SSE) 2,299 6.0 -13.6°
Sets 06:17:16 0° 170° (S) 3,220 6.7 -13.3°
